Regional Weather Roundup
Issued by NWS

Current Version | Previous Version | Text Only | Print | Product List | Glossary On
Versions: 1 2 3 4 5 6 7 8 9 10 11 12 13 14 15 16 17 18 19 20 21 22 23 24 25 26 27 28 29 30 31 32 33 34 35 36 37 38 39 40 41 42 43 44 45 46 47 48 49 50
000
ASUS44 KOUN 100610
RWROK

WEATHER ROUNDUP FOR OKLAHOMA
NATIONAL WEATHER SERVICE NORMAN OK
1200 AM CST SAT DEC 10 2022

NOTE: "FAIR" INDICATES FEW OR NO CLOUDS BELOW 12,000 FEET WITH NO
      SIGNIFICANT WEATHER AND/OR OBSTRUCTIONS TO VISIBILITY.

OKZ001>007-009>012-014-015-017-100700-
NORTHWEST OKLAHOMA AND THE PANHANDLE

CITY           SKY/WX    TMP DP  RH WIND       PRES   REMARKS
GAGE           CLOUDY    44  42  93 S6        30.04S
6HR MIN TEMP:  44; 6HR MAX TEMP:  47; 6HR PCP:  0.04;

GUYMON         CLEAR     34  31  88 SW10      30.01R WCI  26
ENID/WOODRING  CLOUDY    45  45 100 CALM      30.07S THUNDER
$$

OKZ016-021>023-033>039-044-045-100700-
SOUTHWEST OKLAHOMA

CITY           SKY/WX    TMP DP  RH WIND       PRES   REMARKS
LAWTON/REGL    CLOUDY    54  44  69 E3        30.04F
6HR MIN TEMP:  53; 6HR MAX TEMP:  56;

LAWTON/FT SILL CLOUDY    51  49  91 CALM      30.02S
FREDERICK      CLOUDY    52  46  80 N6        30.02S
CLINTON        CLOUDY    47  44  90 W3        30.07S
HOBART         CLOUDY    48  44  86 VRB3      30.07S
ALTUS AFB      CLOUDY    49  46  87 NE3       30.04S
$$

OKZ018>020-024>031-100700-
CENTRAL OKLAHOMA

CITY           SKY/WX    TMP DP  RH WIND       PRES   REMARKS
OKLAHOMA CITY  CLOUDY    49  44  83 N5        30.06R
6HR MIN TEMP:  46; 6HR MAX TEMP:  53; 6HR PCP:  0.50;

OKC/WILEY POST CLOUDY    48  44  86 E3        30.05F
OKC/TINKER AFB CLOUDY    48  48  99 NE3       30.02R
STILLWATER     RAIN      47  44  90 N3        30.08F FOG
GUTHRIE        LGT RAIN  46  44  93 E6        30.06F
$$

OKZ008-013-054>072-100700-
NORTHEAST OKLAHOMA

CITY           SKY/WX    TMP DP  RH WIND       PRES   REMARKS
TULSA          LGT RAIN  47  45  93 VRB3      30.06F FOG
6HR MIN TEMP:  45; 6HR MAX TEMP:  49; 6HR PCP:  0.16;

TULSA/JONES    LGT RAIN  48  44  86 SE7       30.04F
PONCA CITY     LGT RAIN  45  41  86 NE7       30.08F
BARTLESVILLE   HVY RAIN  43  43 100 CALM      30.12F FOG
MUSKOGEE       CLOUDY    50  46  86 E8        30.09F
$$

OKZ032-040>043-046>053-073>077-100700-
SOUTH CENTRAL/SOUTHEAST OKLAHOMA

CITY           SKY/WX    TMP DP  RH WIND       PRES   REMARKS
ARDMORE/DWNTWN CLOUDY    58  48  69 E5        30.03F
MCALESTER      CLOUDY    55  45  68 N5        30.06S
$$




USA.gov is the U.S. government's official web portal to all federal, state and local government web resources and services.